Regional Weather Roundup
Issued by NWS

Home | Current Version | Previous Version | Text Only | Print | Product List | Glossary Off
Versions: 1 2 3 4 5 6 7 8 9 10 11 12 13 14 15 16 17 18 19 20 21 22 23 24 25 26 27 28 29 30 31 32 33 34 35 36 37 38 39 40 41 42 43 44 45 46 47 48 49 50

000
ASUS45 KABQ 241301
RWRNM
NEW MEXICO REGIONAL WEATHER ROUNDUP
NATIONAL WEATHER SERVICE ALBUQUERQUE NM
700 AM MDT SUN JUL 24 2016

NOTE: "FAIR" MEANS FEW OR NO CLOUDS BELOW 12,000 FEET AGL WITH NO
       SIGNIFICANT WEATHER OR OBSTRUCTIONS TO VISION.

      THIS PRODUCT IS RELEASED AS TWO VERSIONS.  ONE VERSION NEAR
      THE TOP OF THE HOUR CONTAINING PRELIMINARY DATA FROM ALBUQUERQUE
      AND OTHER STATIONS.  A FINAL VERSION WITH ADDITIONAL DATA IS
      ISSUED ABOUT 10 MINUTES AFTER THE HOUR.

NMZ501-503-504-510>518-241400-
NORTHWEST PLATEAU/NORTHCENTRAL MOUNTAINS

CITY           SKY/WX    TMP DP  RH WIND       PRES   REMARKS
FARMINGTON     FAIR      67  44  43 E8        30.16R
LOS ALAMOS     FAIR      67  48  49 NE6       30.30R
SANTA FE       FAIR      68  55  63 S5        30.20F
TAOS           FAIR      61  37  41 NE5       30.32S
ANGEL FIRE     FAIR      52  49  88 CALM      30.43S

$$
NMZ402-403-502-505>509-241400-
WESTCENTRAL MOUNTAINS/SOUTHWEST MOUNTAINS

CITY           SKY/WX    TMP DP  RH WIND       PRES   REMARKS
GALLUP         FAIR      61  52  72 CALM      30.25R
GRANTS         FAIR      57  51  80 CALM      30.27R
SILVER CITY    FAIR      69  49  48 NW16      30.14R

$$
NMZ407-409-411-412-241400-
SOUTHERN DESERTS

CITY           SKY/WX    TMP DP  RH WIND       PRES   REMARKS
LORDSBURG      FAIR      72  50  46 NW8       30.08R
DEMING         FAIR      73  49  42 CALM      30.05R
LAS CRUCES     FAIR      76  43  30 NW6       30.03R
ALAMOGORDO     FAIR      68  39  34 SE6       30.03R
T OR C         FAIR      75  46  35 N7        30.08R

$$
NMZ519>523-241400-
CENTRAL VALLEYS/CENTRAL HIGHLANDS

CITY           SKY/WX    TMP DP  RH WIND       PRES   REMARKS
ALBUQUERQUE    MOCLDY    77  51  40 W9        30.14R
DOUBLE EAGLE   MOCLDY    70  48  46 W6        30.18R
MORIARTY ARPT  FAIR      66  47  51 CALM      30.22S
CLINES CORNERS MOCLDY    68  46  45 SE6       30.29R
BELEN          FAIR      71  47  42 W7        30.12S
SOCORRO        FAIR      74  47  38 NW7       30.10R

$$
NMZ524>526-539-540-241400-
SOUTHCENTRAL MOUNTAINS

CITY           SKY/WX    TMP DP  RH WIND       PRES   REMARKS
RUIDOSO          N/A     66  41  39 CALM      30.27S

$$
NMZ527>531-241400-
NORTHEAST HIGHLANDS/NORTHEAST PLAINS

CITY           SKY/WX    TMP DP  RH WIND       PRES   REMARKS
LAS VEGAS      FAIR      61  50  67 NE6       30.29R
RATON          FAIR      67  50  54 N5        30.25R
CLAYTON        FAIR      72  58  61 NW9       30.14R

$$
NMZ532>537-241400-
EASTCENTRAL PLAINS

CITY           SKY/WX    TMP DP  RH WIND       PRES   REMARKS
TUCUMCARI      FAIR      76  51  41 S3        30.07R
CANNON AFB     FAIR      74  55  52 W2        30.10R
CLOVIS AIRPORT FAIR      72  55  56 CALM      30.10R

$$
NMZ028-029-538-241400-
SOUTHEAST PLAINS

CITY           SKY/WX    TMP DP  RH WIND       PRES   REMARKS
ROSWELL        FAIR      74  50  42 CALM      30.03R
ARTESIA        FAIR      75  55  50 CALM      30.03R
CARLSBAD       FAIR      75  55  49 S3        30.00R
HOBBS          SUNNY     72  55  56 E5        30.06R


$$




USA.gov is the U.S. government's official web portal to all federal, state and local government web resources and services.